Regional Weather Roundup
Issued by NWS New Orleans/Baton Rouge, LA

Home | Current Version | Previous Version | Text Only | Print | Product List | Glossary On
Versions: 1 2 3 4 5 6 7 8 9 10 11 12 13 14 15 16 17 18 19 20 21 22 23 24 25 26 27 28 29 30 31 32 33 34 35 36 37 38 39 40 41 42 43 44 45 46 47 48 49 50
814
ASUS44 KLIX 280801
RWRLIX
NEW ORLEANS REGIONAL WEATHER ROUNDUP
NATIONAL WEATHER SERVICE NEW ORLEANS LA
300 AM CDT MON JUL 28 2014

NOTE: "FAIR" INDICATES FEW OR NO CLOUDS BELOW 12,000 FEET WITH NO
      SIGNIFICANT WEATHER AND/OR OBSTRUCTIONS TO VISIBILITY.
      SKY/WX - SKY CONDITION AND SIGNIFICANT WEATHER.
      TMP - AIR TEMPERATURE.     DP    - DEWPOINT TEMPERATURE.
      RH  - RELATIVE HUMIDITY.   PRES  - PRESSURE.
      HI  - HEAT INDEX.          WCI   - WIND CHILL INDEX.

*  THESE STATIONS ARE NOT NWS OR FAA STATIONS AND ARE NOT UNDER
   NWS QUALITY CONTROL.

LAZ038-040-048-061>063-065>067-069-280900-
SOUTHEAST LOUISIANA

CITY           SKY/WX    TMP DP  RH WIND       PRES   REMARKS
N.O. AUDUBON     N/A     82  78  88 MISG        N/A
N.O. INTL ARPT PTCLDY    80  76  87 SW9       30.02F
N.O. LAKEFRONT CLEAR     83  76  79 SW12      30.03F
N.O. DOWNTOWN*   N/A     82  73  74 SW5       30.03F
SLIDELL        CLEAR     82  76  81 VRB5      30.01F
BATON ROUGE    CLEAR     79  75  87 W9        30.02F
BOOTHVILLE     PTCLDY    83  77  82 W7        30.04F
BELLE CHASSE   CLEAR     81  75  82 W6        30.02F
BOGALUSA*        N/A     79  75  85 W3        30.02F
GALLIANO*      NOT AVBL
NEW ROADS*       N/A     77  75  92 CALM      30.03S
GONZALES*        N/A     78  78  99 CALM      30.02F
HAMMOND*       CLEAR     81  73  78 W7        30.03F
HOUMA*         CLEAR     79  74  86 CALM      30.04S
PORT FOURCHON* SUNNY     84  75  74 W10       30.06S

$$

MSZ070-080>082-280900-
SOUTHERN MISSISSIPPI

CITY           SKY/WX    TMP DP  RH WIND       PRES   REMARKS
MCCOMB         CLEAR     78  75  90 W7        30.03S
GULFPORT       CLEAR     84  77  79 W6        30.00F
BILOXI         CLEAR     82  78  87 W6        30.00F
PASCAGOULA     CLEAR     80  77  90 W3        30.00F

$$

COASTAL OBSERVATIONS
LAKE AND NEARSHORE STATIONS

STATION/POSITION TIME  TEMP    WIND        PRES    WAVE
                       AIR SEA DIR/SP/G            HT/PER
                 (UTC) (F)     (DEG/KT/KT) (MB)    (FT/S)
PASCAGOULA       0718   84     260/ 15/ 19 1015.7
WAVELAND YACHT   0718   82     260/  6/  9 1015.8
GRAND ISLE       0718   84 87  250/  8/ 12 1018.1
SOUTHWEST PASS   0718   84 84  280/ 16/ 20 1017.8
NEW CANAL        0718   83 85  240/  5/ 10 1017.3
SHELL BEACH      0718   81 82  240/  8/ 10 1016.8

OFFSHORE STATIONS

STATION/POSITION TIME  TEMP    WIND        PRES    WAVE
                       AIR SEA DIR/SP/G            HT/PER
                 (UTC) (F)     (DEG/KT/KT) (MB)    (FT/S)
64 S DAUPHIN ISL 0748   85 85  270/ 19/ 21 1017.0

$$




USA.gov is the U.S. government's official web portal to all federal, state and local government web resources and services.